Location: Street
(51.1247°N, 2.7429°W)
Time: 08:08:30
(UTC+01:00)

PCSat - Pass Details

Date: 31 March 2023
Orbit: 783 x 794 km, 67.1° (Epoch: 29 May)

Event Time Altitude Azimuth Distance (km) Brightness Sun altitude
Rises 01:07:05 0° 322° (NW) 3,303 13.5 -34.9°
Reaches altitude 10° 01:09:30 10° 321° (NW) 2,371 12.6 -34.9°
Enters shadow 01:12:04 29° 319° (NW) 1,432 11.2 -34.9°
